Regional Weather Roundup
Issued by NWS Glasgow, MT

Home | Current Version | Previous Version | Text Only | Print | Product List | Glossary On
Versions: 1 2 3 4 5 6 7 8 9 10 11 12 13 14 15 16 17 18 19 20 21 22 23 24 25 26 27 28 29 30 31 32 33 34 35 36 37 38 39 40 41 42 43 44 45 46 47 48 49 50
000
ASUS45 KGGW 111015
RWRGGW
HOURLY REGIONAL WEATHER ROUNDUP FOR NORTHEAST MONTANA
NATIONAL WEATHER SERVICE GLASGOW MONTANA
300 AM MST THU FEB 11 2016

NOTE: "FAIR" INDICATES FEW OR NO CLOUDS BELOW 12,000 FEET WITH NO
SIGNIFICANT WEATHER AND/OR OBSTRUCTIONS TO VISISBILITY.

NORTHEAST MONTANA


CITY           SKY/WX    TMP DP  RH WIND       PRES   REMARKS
GLASGOW        CLOUDY    29  25  85 SE16      29.99F
PLENTYWOOD       N/A     24  23  96 E2          N/A
WOLF POINT     LGT SNOW  29  25  85 E9        30.04F FOG
JORDAN           N/A     32  31  96 NE6       29.98S
WINNETT          N/A     30  30 100 CALM        N/A
SIDNEY         CLOUDY    30  25  80 CALM      30.06F
GLENDIVE       CLOUDY    28  27  93 NE9       30.04S
MALTA            N/A     32  30  93 NE3         N/A
SCOBEY           N/A     23  16  74 CALM      30.01F HAZE

FORT PECK REPORTS


CITY           SKY/WX    TMP DP  RH WIND       PRES   REMARKS
FORT PECK        N/A     31  28  89 E12         N/A
THE PINES        N/A     31  27  85 E3          N/A

SOUTHEAST MONTANA


CITY           SKY/WX    TMP DP  RH WIND       PRES   REMARKS
BILLINGS       CLOUDY    47  23  38 SW10      30.02S
MILES CITY     CLOUDY    33  29  85 SE6       29.96F
BAKER          CLOUDY    31  27  85 SE7       30.00F
LIVINGSTON     CLOUDY    48  21  34 SW25      30.13S

CENTRAL MONTANA


CITY           SKY/WX    TMP DP  RH WIND       PRES   REMARKS
HAVRE          CLOUDY    25  25 100 W7        29.99R FOG
LEWISTOWN      CLEAR     42  30  62 NW10      30.02R
GREAT FALLS    CLOUDY    43  28  55 W9        30.08R
CUT BANK       CLEAR     40  27  59 W26G32    30.01F
HELENA         CLOUDY    36  29  75 MISG      30.15R
BUTTE          CLOUDY    25  19  78 NW6       30.22R
BOZEMAN        CLOUDY    32  27  81 VRB5      30.18S

WESTERN MONTANA


CITY           SKY/WX    TMP DP  RH WIND       PRES   REMARKS
MISSOULA       CLOUDY    34  31  88 CALM      30.25R
KALISPELL      NOT AVBL

NORTH DAKOTA


CITY           SKY/WX    TMP DP  RH WIND       PRES   REMARKS
WILLISTON      LGT SNOW  26  23  88 CALM      30.07F FOG
DICKINSON      CLOUDY    25  22  88 SE6       30.04S
MINOT          CLOUDY    15   6  67 CALM      30.15S
BISMARCK       CLOUDY    19  12  74 SE5       30.16F

SOUTHERN SASKATCHEWAN


CITY           SKY/WX    TMP DP  RH WIND       PRES   REMARKS
REGINA         FLURRIES  16  12  86 E3        30.13S
ESTEVAN        FLURRIES  14  10  85 E7        30.12S
SWIFT CURRENT  LGT SNOW  19  19 100 E13       30.00S




USA.gov is the U.S. government's official web portal to all federal, state and local government web resources and services.